User: anonymous   Login
Location: ???????
(55.4362°N, 38.1183°E)
Time: 23:08:09
(UTC+00:00)
Language:

Cosmos 1300 - Orbit

View from above orbital plane
View from above orbital plane
View from above satellite
View from above satellite

Ground track
Ground track

The orbit data is extracted from the following two-line orbital elements,

1 12785U 81082A   21269.21350175  .00000953  00000-0  45026-4 0  9994
2 12785  82.5038 327.2679 0001363 138.2433 278.6211 15.18248981188500
Epoch (UTC): 26 September 2021 05:07:26
Eccentricity: 0.0001363
inclination: 82.5038°
perigee height: 510 km
apogee height: 512 km
right ascension of ascending node: 327.2679°
argument of perigee: 138.2433°
revolutions per day: 15.18248981
mean anomaly at epoch: 278.6211°
orbit number at epoch: 18850

The dashed part of the orbit path shows where the satellite is in the earth's shadow,  

DLR